Regional Weather Roundup
Issued by NWS

Home | Current Version | Previous Version | Graphics & Text | Print | Product List | Glossary On
Versions: 1 2 3 4 5 6 7 8 9 10 11 12 13 14 15 16 17 18 19 20 21 22 23 24 25 26 27 28 29 30 31 32 33 34 35 36 37 38 39 40 41 42 43 44 45 46 47 48 49 50
000
ASUS43 KLSX 271159
RWRMO

WEATHER SUMMARY FOR MISSOURI
NATIONAL WEATHER SERVICE SPRINGFIELD MO
700 AM CDT WED AUG 27 2014

NOTE: "FAIR" INDICATES FEW OR NO CLOUDS BELOW 12,000 FEET WITH NO
       SIGNIFICANT WEATHER AND/OR OBSTRUCTIONS TO VISIBILITY.
       CURRENT SKY AND/OR WEATHER CONDITIONS ARE NOT AVAILABLE FOR
       CHILLICOTHE AND FARMINGTON.

MOZ001>031-035>038-043-044-053-054-271300-
...NORTHERN AND WESTERN MISSOURI...

CITY           SKY/WX    TMP DP  RH WIND       PRES   REMARKS
KANSAS CTY INT MOCLDY    72  71  97 NW10      30.10R
6HR MIN TEMP:  72; 6HR MAX TEMP:  78;

KANSAS C DTWN  PTCLDY    76  71  85 S3        30.07R
6HR MIN TEMP:  76; 6HR MAX TEMP:  79;

LEE`S SUMMIT   CLEAR     73  69  87 S5        30.09R
6HR MIN TEMP:  72; 6HR MAX TEMP:  77;

ST JOSEPH      CLOUDY    69  66  90 N9        30.14R
6HR MIN TEMP:  69; 6HR MAX TEMP:  76; 6HR PCP: TRACE;

KIRKSVILLE     PTCLDY    69  67  93 NE6       30.11R
6HR MIN TEMP:  69; 6HR MAX TEMP:  71;


$$
MOZ066>068-077>081-088>096-101>105-271300-
...SOUTHWEST MISSOURI...

CITY           SKY/WX    TMP DP  RH WIND       PRES   REMARKS
SPRINGFIELD    CLEAR     72  67  84 S6        30.10R
6HR MIN TEMP:  71; 6HR MAX TEMP:  74;

JOPLIN         CLEAR     73  67  81 S7        30.09R
6HR MIN TEMP:  72; 6HR MAX TEMP:  76;


$$
MOZ032>034-039>042-045>050-055>058-069>072-271300-
...CENTRAL MISSOURI...

CITY           SKY/WX    TMP DP  RH WIND       PRES   REMARKS
COLUMBIA       FOG       71  71 100 E5        30.07S VSB 1/4
6HR MIN TEMP:  70; 6HR MAX TEMP:  77;

JEFFERSON CITY CLEAR     70  68  93 CALM      30.07R
6HR MIN TEMP:  70; 6HR MAX TEMP:  76;

ROLLA          CLEAR     70  67  90 S6        30.08R
6HR MIN TEMP:  70; 6HR MAX TEMP:  73;

SEDALIA        CLEAR     71  68  90 CALM      30.08R FOG
6HR MIN TEMP:  70; 6HR MAX TEMP:  75;

OSAGE BEACH    CLEAR     70  64  83 CALM      30.08R

$$
MOZ051-052-059>065-271300-
...EAST CENTRAL MISSOURI...

CITY           SKY/WX    TMP DP  RH WIND       PRES   REMARKS
ST LOUIS INTL  PTCLDY    76  70  82 CALM      30.08R
6HR MIN TEMP:  75; 6HR MAX TEMP:  78;

SPIRIT OF STL  CLEAR     72  70  93 CALM      30.06R
6HR MIN TEMP:  71; 6HR MAX TEMP:  76; 6HR PCP: TRACE;

ST CHARLES     CLEAR     72  69  90 NE3       30.07R
6HR MIN TEMP:  71; 6HR MAX TEMP:  74;


$$
MOZ072>076-082>087-097>100-106>115-271300-
...SOUTH CENTRAL AND SOUTHEAST MISSOURI...

CITY           SKY/WX    TMP DP  RH WIND       PRES   REMARKS
CAPE GIRARDEAU FOG       70  69  97 CALM      30.08R VSB<1/4
6HR MIN TEMP:  69; 6HR MAX TEMP:  75;

FARMINGTON     CLEAR     70  66  88 CALM      30.12S
6HR MIN TEMP:  68; 6HR MAX TEMP:  75;

POPLAR BLUFF   CLEAR     71  68  90 CALM      30.07R FOG
6HR MIN TEMP:  71; 6HR MAX TEMP:  74;

WEST PLAINS    CLEAR     70  66  87 CALM      30.12S
6HR MIN TEMP:  68; 6HR MAX TEMP:  74;


$$


USA.gov is the U.S. government's official web portal to all federal, state and local government web resources and services.